STARLINK-31564, 59526

Orbit data source: Space-Track

STARLINK-31564, 59526 is a payload satellite owned by SpaceX/Seattle (US) in LEO that was launched on Wed, 17 Apr 2024 UTC via an FALCON 9 launch vehicle from the Air Force Eastern Test Range (AFETR). Payload-class satellites include a variety of spacecraft equipped with specific instruments for various scientific and technological missions. These include communications satellites like Starlink; space stations such as the ISS; scientific satellites like the Hubble; Earth observation satellites from companies like Planet Labs, Umbra, and HawkEye 360; GPS; miniature CubeSats for education and research; and military/defense satellites.

Loading next visibility...
Identifier
59526, 2024-073R
Orbit
LEO
Country
Flag of USUS
Related business
Manufacturer
SpaceX/Seattle
Mission
Operational Commercial Communications
Bus & Motor
STARLINK V2M, Unknown motor
Mass
730 kg wet, ~700 kg dry
Launch date (UTC)
2024-04-17 (2 years ago)
Launch vehicle
FALCON 9
Launch site
Air Force Eastern Test Range (AFETR)
Object type
Payload
Rocket body
Debris
Shape & HBR
Box + 2 Pan, 17.7 m
Radar Cross Section
33.884 m², Large (>1 m²)

Expand to show TLE details & history
Last TLE update: 2 days ago

TLE from 2 days ago
0 STARLINK-31564
1 59526U 24073R   26171.18046361  .00001130  00000-0  50585-4 0  9991
2 59526  43.0028  98.9168 0000823 277.2143  82.8615 15.27581722121853
Epoch: 2026-06-20T04:19Z
TLE epoch observation values (Epoch: 2026-06-20T04:19:52.055Z)
Latitude
-0.00004°
Longitude
125.55107°
Altitude
482.75 km
Speed
7.626 km/s
True Right ascension
06h 35m 40s
True Declination
0° 00' 00"
Sunlit
Object was in daylight at epoch
Visualization orbit readout
Latitude
Unknown
Longitude
Unknown
Altitude
Unknown
Speed
Unknown
Apparent Right ascension
Unknown
Apparent Declination
Unknown
Sunlit
N/A
Visualization observer readout
Local Sidereal Time
14:08:35
Azimuth
Unknown
Elevation
Unknown
Doppler factor
Unknown
Orbital elements
Apogee altitude
485.553 km
Perigee altitude
484.424 km
Semi-major axis
6,863.126 km
Eccentricity
0.00008
Inclination
43.0028°
RAAN
98.9168°
Arg. of periapsis
277.2143°
True anomaly
82.87086°
Mean anomaly
82.8615°
Eccentric anomaly
82.86618°
Mean motion
3.81733 °/min
Orbital period
94.31 mins
BSTAR
0.000050585
Loading maneuver chart data...
Computing Atmospheric mass density...

Documentation

Showing up to 5 results
|